Theta_e
335 336 341 338 336 344 346 343 336 329 329 331 329 327 328 331 333 334 335 335 336 336 337 337 337 338 339 339 340 339 339 340 340 341 341 341 342 342 342 342 343 343 343 343 343 343 343 342 342 341 341 341 340 341 342 342 341 342 342 342 342 342 342 342 342 342 341 340 339 339 339 338 337 337 337 338 337 337 337 337 337 337 337 338 337
333 338 342 339 337 343 345 342 335 329 328 331 330 328 328 331 332 333 335 336 337 337 338 337 338 338 338 339 339 339 340 340 340 341 341 342 341 341 341 342 343 344 343 343 342 342 342 342 341 340 340 340 340 339 340 341 340 340 341 341 342 342 341 341 341 341 340 339 338 339 338 337 336 337 337 337 337 337 338 338 337 336 337 337 337
334 342 343 339 338 342 344 342 336 330 328 331 331 328 328 330 332 333 335 336 337 337 338 338 338 339 339 339 339 339 340 340 340 341 341 341 341 341 341 342 342 343 343 342 341 342 341 341 340 339 340 340 339 338 339 339 339 339 340 340 341 340 340 339 339 340 339 338 338 337 335 333 333 334 335 336 336 336 337 338 337 337 337 337 337
338 344 342 341 340 341 343 341 337 331 328 331 331 329 328 330 332 334 335 336 337 338 338 339 339 339 339 338 339 340 340 340 340 340 340 340 340 340 341 342 342 343 343 341 340 338 337 339 339 339 340 340 339 339 339 339 339 340 340 340 340 339 339 338 337 337 337 337 337 335 334 333 333 333 333 333 333 332 333 334 335 336 336 336 336
339 344 343 345 342 342 343 340 337 332 329 331 331 329 328 329 332 334 335 336 338 338 339 339 339 339 339 339 339 340 340 340 340 340 339 339 339 339 341 341 340 340 338 335 333 331 331 333 337 340 339 339 339 339 339 339 340 341 341 340 341 340 340 338 337 337 336 336 335 334 333 333 334 333 332 331 331 332 332 332 333 334 334 334 334
337 343 344 345 344 344 343 341 338 334 330 331 332 329 328 328 331 334 335 337 338 339 339 339 339 339 339 339 339 340 340 341 340 339 338 338 338 340 341 341 338 334 332 331 330 329 327 326 329 335 339 339 339 339 340 340 340 340 340 341 341 341 341 339 339 338 336 335 334 333 333 333 333 334 334 331 330 330 333 333 333 333 333 333 333
334 341 344 344 343 344 342 340 338 335 331 331 332 330 328 328 332 334 335 337 339 339 339 339 339 339 339 339 339 340 341 341 340 338 338 338 338 340 341 340 337 333 332 331 331 329 327 324 323 325 332 338 338 338 339 339 339 340 340 340 341 341 341 340 340 339 337 336 334 333 334 333 332 334 335 332 331 330 330 333 333 333 333 332 332
336 340 343 342 342 343 342 340 339 336 332 332 332 331 329 329 331 333 336 338 340 339 339 339 340 339 339 339 340 341 341 342 340 338 337 338 338 339 340 340 338 335 332 330 330 328 327 326 325 322 323 330 335 337 338 339 339 339 339 340 340 340 340 340 340 338 338 337 334 333 334 333 332 333 334 332 332 330 330 331 332 333 332 331 331
338 341 342 341 342 343 342 340 339 336 334 334 333 332 330 330 331 334 338 340 340 339 339 340 340 340 340 340 340 341 342 340 340 338 338 338 337 338 339 340 339 335 331 329 328 326 324 324 325 324 321 321 328 334 336 338 339 338 339 339 340 340 340 339 339 338 338 338 335 332 333 335 336 336 335 333 332 331 332 331 330 331 331 330 331
340 342 342 341 341 343 342 340 339 337 335 335 334 333 331 329 331 336 340 341 341 339 340 340 340 341 341 341 341 342 341 340 340 339 338 338 336 337 338 339 338 334 329 329 327 325 323 323 323 324 323 319 322 330 333 337 338 338 338 338 338 339 339 338 338 339 338 338 336 333 332 334 337 337 336 334 332 331 332 332 332 332 331 331 330
340 342 343 340 342 343 342 341 340 339 337 336 336 334 332 330 334 340 342 342 341 340 341 341 342 341 342 342 341 341 341 341 340 338 338 338 335 334 336 339 339 335 329 328 327 325 323 324 325 324 324 320 320 325 330 334 336 337 337 337 337 337 337 335 337 340 338 338 337 334 332 332 334 335 335 334 332 331 332 333 333 332 331 331 331
339 341 342 341 342 342 342 341 341 340 338 338 338 335 332 332 337 342 343 343 342 342 342 342 342 342 342 342 342 341 340 340 339 339 338 338 335 331 336 339 340 337 330 328 327 325 324 325 326 325 324 322 320 322 327 332 334 336 336 337 336 334 334 334 336 339 338 338 338 334 330 329 330 334 334 334 333 332 332 331 331 331 330 330 330
340 341 342 341 341 342 342 341 341 341 340 340 339 337 334 335 339 343 343 343 342 343 343 342 342 341 342 341 341 341 340 340 339 339 338 338 333 330 336 338 339 337 330 328 327 324 324 325 327 326 323 322 322 324 327 331 334 335 336 335 333 332 332 333 335 337 338 338 338 334 328 326 328 333 333 333 332 332 332 331 330 330 331 330 330
339 342 340 340 341 341 341 341 341 340 341 341 339 338 336 337 341 343 343 342 343 343 342 341 341 341 341 341 341 340 339 339 337 338 337 337 334 333 336 335 337 336 329 327 327 325 325 326 327 326 323 321 323 327 330 332 333 334 334 332 332 333 332 333 334 336 337 338 338 332 327 326 327 331 333 332 332 332 332 332 332 330 331 330 330
335 339 339 340 341 340 340 341 341 340 341 341 339 338 336 338 342 343 343 342 342 342 342 341 340 341 340 340 339 338 338 337 336 336 334 335 335 335 335 334 336 334 328 327 326 326 326 326 327 325 323 321 324 327 330 332 331 332 331 331 333 334 332 333 334 336 337 337 337 331 327 328 329 331 333 332 332 332 332 332 332 331 330 330 329
335 337 340 340 340 340 340 340 340 341 341 341 338 337 337 339 343 343 342 342 342 342 342 341 339 340 339 337 336 335 336 335 334 335 336 336 335 334 333 332 333 332 327 326 327 327 327 327 327 324 322 321 323 326 329 330 330 331 330 331 335 335 333 333 334 335 336 337 336 331 328 329 329 330 331 331 332 332 331 330 330 330 329 329 329
338 338 339 339 340 340 340 340 340 341 341 340 338 338 338 340 343 342 342 342 342 341 341 340 339 338 336 334 331 331 333 334 332 333 336 336 335 334 331 329 330 330 326 326 327 327 327 327 327 325 322 320 322 324 327 329 329 329 329 333 335 335 334 334 334 335 336 337 334 330 329 329 329 329 329 330 332 332 331 331 331 330 329 328 329
339 339 339 339 340 339 339 340 340 341 341 339 339 339 339 341 342 343 343 341 341 341 340 339 338 336 334 332 328 326 329 333 332 332 336 336 336 334 330 327 329 329 326 326 328 327 328 327 328 326 323 320 320 323 325 328 329 327 329 334 335 335 335 334 334 335 336 337 333 331 329 328 328 329 329 329 331 332 332 332 331 331 331 329 330
339 340 340 340 340 339 338 339 340 341 340 339 340 339 339 342 343 343 342 341 340 340 339 338 336 335 333 330 325 321 321 330 333 331 334 334 335 333 327 325 328 329 326 326 328 328 329 328 328 327 325 322 320 321 323 327 328 327 330 334 335 335 335 334 334 335 336 336 333 332 329 327 328 329 329 329 329 329 331 331 329 330 331 330 330
340 340 340 340 340 339 338 339 340 340 340 340 340 340 340 342 343 343 342 341 340 340 338 336 335 333 330 325 320 317 316 326 332 331 333 333 332 330 323 323 327 328 326 326 328 329 329 329 328 327 327 326 322 320 320 323 325 327 331 334 335 335 335 334 334 334 335 335 334 332 329 328 328 328 329 329 329 328 328 328 329 330 330 330 330
340 339 339 339 339 338 338 340 341 340 340 340 340 341 342 342 343 343 342 341 340 339 337 335 333 329 325 319 317 315 314 321 326 327 331 331 331 327 319 321 327 328 326 326 327 328 329 329 329 328 328 328 327 323 319 320 322 328 330 331 334 335 334 334 334 333 334 335 335 333 330 329 329 328 329 329 328 327 327 328 329 329 331 331 330
339 339 339 339 338 337 339 341 340 340 340 340 341 342 343 343 343 343 342 342 341 338 336 334 330 324 320 318 316 314 312 314 316 319 322 324 328 325 317 319 325 327 326 326 326 327 328 328 328 328 328 327 328 327 323 320 322 330 330 326 330 332 332 332 333 333 334 334 334 333 331 331 329 328 329 329 329 328 327 328 328 329 331 331 331
338 339 339 339 338 337 340 341 340 340 340 341 342 343 343 342 343 343 342 342 340 338 336 331 326 322 320 319 318 315 314 313 312 313 313 314 317 316 315 318 324 327 326 326 326 326 326 327 327 327 327 326 326 328 326 323 325 330 329 326 328 329 329 330 333 334 333 334 333 333 332 332 329 328 329 329 329 328 328 327 327 329 330 330 329
338 338 339 339 338 338 339 340 339 339 340 342 343 343 343 343 343 343 342 342 339 338 335 330 325 323 323 323 323 322 320 320 318 315 312 310 311 312 314 318 323 326 326 326 326 326 326 326 326 325 325 324 324 327 327 325 328 330 330 332 333 333 333 330 332 335 334 333 333 333 333 332 330 329 330 329 329 328 328 327 327 328 328 328 328
338 337 339 339 338 338 338 339 339 338 341 343 342 343 343 343 343 342 342 341 339 338 335 330 327 326 327 331 331 329 329 329 328 323 317 314 311 311 315 319 323 325 326 326 326 326 325 324 323 322 321 323 324 327 329 328 331 334 333 333 333 333 335 334 333 334 335 333 333 333 333 332 331 330 330 330 329 328 328 328 328 328 328 327 327
337 337 338 339 338 339 338 338 339 338 342 343 342 343 343 343 343 342 342 341 340 339 336 332 328 329 334 337 335 333 334 335 335 332 327 324 320 315 313 317 321 323 324 324 324 323 325 327 327 325 324 328 329 328 329 329 332 333 332 332 332 331 332 334 335 335 335 335 334 333 333 333 332 332 331 331 330 329 328 328 328 329 328 328 327
338 337 338 339 338 339 338 338 339 338 341 342 342 343 343 342 342 342 341 341 340 338 337 333 329 331 338 339 336 335 335 337 338 336 334 332 332 326 318 320 325 325 323 320 321 326 332 333 333 332 331 332 332 332 331 330 331 332 333 334 334 332 331 332 334 336 336 336 335 333 333 333 333 333 332 332 332 331 329 329 328 329 329 328 328
337 337 338 338 337 338 337 338 339 339 341 342 342 343 343 342 342 342 342 341 340 339 338 335 332 332 338 340 339 338 338 337 338 337 337 335 336 335 330 330 333 334 331 328 329 334 335 335 336 336 335 334 334 334 333 333 333 334 336 336 335 334 333 332 333 335 337 336 335 334 333 333 333 333 333 333 332 331 331 329 329 329 329 329 328
337 337 338 338 337 337 337 338 339 340 342 341 341 342 342 342 342 342 341 341 340 339 338 337 334 333 338 341 340 340 340 339 338 338 337 337 337 337 336 336 336 337 337 336 336 336 335 336 338 337 336 336 336 336 335 336 337 337 337 336 336 335 334 333 333 334 335 336 336 334 334 333 333 333 333 333 333 332 332 331 330 330 330 331 330
336 337 337 338 338 337 336 337 338 340 341 341 341 341 341 341 342 341 340 340 340 339 338 338 337 336 339 341 340 341 341 340 339 338 338 338 338 338 338 338 338 338 338 338 337 337 336 338 338 338 338 337 337 337 337 337 337 338 337 336 336 335 335 334 334 334 334 334 335 335 334 333 333 333 333 333 333 333 332 332 332 331 331 333 333
336 337 337 337 338 337 336 337 338 340 340 340 341 341 341 341 341 341 340 340 339 339 339 339 339 339 340 341 341 341 341 341 339 339 338 338 339 339 338 338 338 338 339 339 338 337 338 339 339 339 339 339 339 339 338 338 338 338 337 337 336 336 336 336 335 335 335 334 334 334 334 334 333 333 334 334 334 333 333 332 332 332 332 334 334
336 336 337 337 338 337 335 336 339 340 340 341 341 341 341 341 340 340 340 339 339 339 339 340 341 341 341 340 340 341 341 341 340 339 338 338 339 339 339 338 339 339 339 339 339 339 340 340 339 339 339 338 339 339 339 339 338 338 338 337 336 336 337 337 337 336 336 336 335 335 334 333 333 334 334 334 334 334 334 333 333 334 334 334 335
337 336 336 336 337 336 335 338 340 340 341 341 341 341 342 341 340 340 339 339 339 339 340 341 341 341 341 340 340 341 341 340 339 339 338 338 339 340 340 339 339 339 339 339 339 340 339 339 339 338 338 338 338 338 338 337 337 337 337 337 337 337 338 337 337 337 337 336 336 335 335 334 334 334 334 334 334 334 334 333 333 335 335 334 334
338 336 336 335 334 335 336 338 339 340 340 341 342 341 342 341 340 339 339 339 339 339 341 341 341 341 341 341 340 341 341 339 338 339 339 339 339 340 340 340 340 340 339 339 339 339 338 338 338 338 337 337 336 336 336 336 335 335 335 336 336 337 338 337 338 338 338 337 337 337 336 337 337 336 335 334 334 334 335 334 333 334 334 333 333
339 338 336 333 333 335 335 335 336 337 338 339 341 340 341 340 338 338 339 339 339 340 341 341 341 341 341 340 340 341 340 339 338 338 339 339 340 340 340 340 340 340 339 339 338 338 338 337 337 336 336 335 335 335 335 336 335 335 335 335 335 336 336 337 337 337 337 337 337 337 337 337 338 338 338 336 334 333 334 334 334 333 332 332 332
341 339 337 334 334 335 333 333 333 334 334 335 338 340 339 337 336 338 339 339 340 340 341 341 340 341 340 340 340 340 339 338 338 338 339 339 339 339 340 340 340 340 339 338 338 338 337 337 336 336 336 336 336 336 336 336 336 336 335 335 335 335 335 335 336 336 336 336 336 336 336 336 336 337 337 337 336 335 335 335 335 334 332 331 331
341 340 339 338 337 337 336 336 336 336 335 334 335 338 338 336 337 339 338 338 340 341 341 340 341 340 340 340 340 340 338 337 337 338 338 338 338 339 340 340 339 339 338 338 338 337 337 336 336 337 336 336 337 337 336 336 336 336 336 336 336 335 335 335 335 335 335 335 336 336 336 335 335 335 336 337 337 337 337 335 334 333 332 332 331
340 340 339 338 338 340 339 339 338 338 337 336 334 336 336 336 339 339 338 339 340 341 340 340 341 340 340 340 340 339 338 337 336 337 338 338 339 340 339 339 338 338 338 337 337 337 337 336 336 336 336 337 337 337 337 336 336 335 335 335 335 334 334 334 334 334 334 335 335 334 334 333 333 334 335 336 337 337 337 336 335 334 333 333 332
341 341 340 339 338 339 340 339 339 338 337 336 334 334 335 337 339 338 339 340 340 340 340 340 340 340 340 340 339 338 337 337 337 338 339 339 339 339 339 338 337 338 338 337 337 337 336 337 337 337 337 337 336 336 336 335 334 334 334 333 332 332 332 333 333 334 334 333 333 332 332 332 332 333 334 336 336 337 337 337 336 336 335 334 333
341 341 340 339 337 337 338 339 338 338 336 335 335 335 336 338 337 337 339 340 340 340 340 339 340 340 340 340 339 338 338 339 339 339 339 339 339 339 339 337 337 338 338 336 336 337 337 337 337 337 337 336 336 336 335 334 333 332 332 331 330 331 331 330 332 333 332 330 330 331 331 331 331 332 333 333 334 334 334 336 336 336 336 336 335
340 338 339 339 337 336 337 338 338 338 334 333 336 336 336 337 337 338 339 339 339 339 339 339 339 339 339 338 338 339 340 340 340 340 340 339 339 338 338 338 338 338 337 337 338 338 338 337 337 336 336 335 335 335 334 333 333 332 331 330 330 330 329 328 332 333 329 328 330 331 330 329 330 330 330 330 330 331 331 332 332 333 334 334 335
338 336 337 339 339 339 339 338 337 337 334 334 335 336 336 336 337 338 338 339 339 339 338 338 338 338 338 338 338 340 340 340 340 340 340 339 337 337 338 338 339 339 339 339 339 338 337 336 335 335 334 334 334 334 333 333 333 333 331 331 331 330 328 328 332 331 327 329 331 329 329 329 330 329 330 330 329 329 330 330 330 330 331 332 333
337 336 336 337 339 340 340 338 336 337 335 335 336 336 337 337 337 338 338 339 339 339 338 338 338 338 338 338 339 339 340 340 340 339 339 338 336 336 338 339 339 339 339 338 337 336 335 335 334 334 334 333 333 333 333 332 333 332 330 332 333 332 330 330 331 330 328 330 330 329 329 329 330 330 329 329 329 329 329 329 329 329 330 330 331
336 336 336 336 337 340 340 338 337 337 336 336 337 337 337 337 337 337 338 338 338 338 338 338 338 338 338 339 338 338 340 340 340 339 338 338 337 337 338 339 338 338 338 337 336 335 334 334 333 333 333 332 333 332 332 332 332 332 331 332 332 331 332 331 329 329 329 329 329 329 330 330 330 330 329 329 328 328 328 329 329 329 329 330 330
336 336 337 336 337 339 340 338 337 337 337 337 337 337 337 337 337 337 338 338 338 338 338 338 339 338 338 338 337 339 340 340 340 339 338 338 339 339 339 339 338 337 337 336 336 335 334 334 333 332 332 332 332 331 331 331 330 332 332 332 331 332 333 331 329 330 330 329 329 330 330 330 330 329 329 328 328 328 328 328 328 329 329 329 330
336 336 337 337 337 338 339 338 337 337 337 337 337 336 336 336 337 337 337 337 337 337 338 338 338 338 339 338 337 339 340 339 339 339 339 339 339 340 339 338 337 336 336 336 335 334 334 333 332 332 331 331 331 330 331 330 330 331 332 332 332 333 332 331 331 332 330 329 329 329 330 330 329 329 329 328 328 328 328 327 327 328 328 329 329
337 337 337 337 336 337 337 337 337 338 337 336 337 336 336 336 336 336 336 336 336 337 337 337 338 338 338 337 338 339 339 339 339 339 339 340 339 338 338 337 336 336 335 335 334 333 333 332 331 331 331 330 330 330 330 330 330 331 331 331 331 331 331 331 332 332 332 331 330 330 330 330 330 329 328 327 327 327 327 326 327 328 328 328 328
337 337 337 337 336 336 337 337 337 338 337 337 337 337 336 336 336 336 336 336 336 337 338 338 338 338 337 337 339 339 339 339 340 339 340 340 338 337 336 336 335 335 334 333 333 332 331 331 330 330 329 329 329 330 330 331 331 331 331 331 331 330 331 331 331 331 331 332 331 330 329 330 330 329 328 327 327 327 326 326 327 328 328 328 328
337 337 337 336 336 336 337 337 337 337 337 338 338 337 337 337 336 336 336 336 336 337 338 338 338 338 337 337 339 340 340 340 339 339 339 338 337 336 335 335 334 333 332 332 331 330 330 330 329 329 329 329 329 330 330 330 331 331 330 330 330 330 330 330 330 329 330 332 332 330 329 330 329 329 328 327 327 326 326 326 327 327 328 328 328
337 337 336 336 336 337 337 337 336 337 337 337 338 337 337 337 337 337 336 336 336 336 337 338 337 336 336 338 340 340 340 339 338 338 337 336 335 335 334 334 333 332 331 330 330 329 329 329 328 328 328 329 329 330 330 330 330 330 330 330 330 330 330 330 330 330 329 330 331 331 329 330 330 328 328 327 326 326 326 327 327 327 327 327 328
336 336 336 337 337 337 336 336 336 337 337 337 338 338 337 337 338 337 337 336 336 336 337 337 336 336 337 339 340 339 338 337 336 336 335 335 334 334 333 333 331 331 330 329 329 328 328 328 328 328 328 328 329 329 330 330 329 328 329 330 330 329 329 329 329 329 329 330 331 331 330 329 329 329 328 327 326 326 327 326 327 327 327 327 328
Wind_Speed
30 33 30 30 30 29 27 28 28 28 27 25 24 23 23 23 22 22 22 23 23 23 23 23 22 21 21 21 21 20 21 21 20 19 18 18 17 16 15 14 13 13 13 13 13 13 13 13 14 14 14 14 14 14 14 14 14 14 15 15 15 15 15 15 16 16 17 17 17 16 17 17 16 16 16 16 16 16 17 17 18 18 18 17 16
37 34 32 32 31 30 29 29 29 28 27 26 25 24 23 23 22 22 23 23 23 24 23 23 22 21 21 21 20 20 20 20 20 19 18 18 17 16 15 14 14 13 13 14 14 14 13 13 14 14 14 14 14 15 15 15 15 15 15 15 15 15 15 16 16 16 17 16 16 15 15 15 15 14 14 14 14 15 15 16 17 17 16 15 15
37 34 33 32 32 31 30 31 31 29 28 26 25 24 24 23 23 22 23 23 23 24 23 23 22 21 21 21 20 19 19 19 19 19 18 17 16 15 14 14 13 13 14 14 14 13 13 14 14 14 15 14 15 16 17 16 16 16 15 15 16 15 15 15 15 15 15 15 15 14 14 13 12 12 12 12 12 12 13 13 14 14 14 14 14
35 34 33 32 32 31 31 32 31 30 29 27 25 24 24 23 23 22 22 23 23 23 23 23 22 21 20 20 20 19 19 19 19 19 18 17 15 15 14 13 14 14 14 14 14 14 14 14 14 14 14 14 15 16 16 16 15 15 15 15 15 15 14 14 13 13 13 13 13 13 13 12 11 11 10 10 10 10 10 11 11 11 11 11 12
35 33 32 31 30 31 31 32 32 30 29 27 26 25 24 23 23 22 22 22 23 24 23 23 22 21 21 20 20 19 18 18 18 18 18 16 15 14 13 13 14 14 14 14 14 14 14 13 13 13 14 14 14 14 14 14 13 13 14 14 13 13 13 13 12 12 11 11 11 11 12 12 12 10 9 9 10 10 9 9 9 9 9 9 9
36 34 33 31 31 31 31 32 32 30 29 28 26 25 24 23 23 22 22 23 23 23 23 23 22 21 21 20 19 19 18 17 17 17 17 16 15 14 14 14 15 14 14 13 13 13 13 12 12 12 12 13 13 13 13 12 12 12 12 12 12 12 12 12 11 10 10 10 9 10 11 11 11 11 10 10 9 10 9 9 9 9 8 8 8
37 35 33 32 32 31 31 33 32 31 29 28 27 25 24 23 23 22 22 23 23 23 23 22 22 21 21 20 19 18 17 15 15 16 16 16 15 14 14 15 14 13 12 12 11 11 11 11 11 11 10 11 12 12 13 12 12 12 12 12 12 11 11 10 9 8 8 7 7 9 10 11 11 10 10 9 8 8 9 9 9 9 8 9 9
36 35 33 33 32 31 31 32 31 31 29 28 27 26 25 23 23 23 23 23 23 23 23 22 22 21 20 20 19 17 16 14 15 16 16 15 14 13 13 13 13 12 11 11 10 10 10 9 9 9 9 10 11 12 13 12 12 11 11 11 11 10 9 9 7 5 6 5 6 8 9 10 9 9 8 7 7 7 8 9 9 9 8 9 9
34 33 33 34 32 31 31 32 32 31 29 28 27 26 25 23 23 23 23 23 23 23 22 22 21 20 20 19 18 17 16 14 14 15 15 15 14 13 13 11 11 11 10 10 9 9 9 8 7 7 8 9 11 12 12 11 11 10 10 10 10 10 8 7 3 2 3 4 5 7 7 9 9 9 6 5 7 7 8 9 8 9 9 8 9
33 31 32 33 31 30 30 31 31 30 29 27 27 26 25 23 23 23 23 23 23 23 22 21 20 20 19 18 17 16 16 14 14 14 15 14 14 14 13 11 10 10 10 9 9 8 8 8 7 7 7 9 12 12 11 10 10 9 9 9 9 8 6 4 2 3 3 3 5 5 6 7 8 7 6 6 7 7 8 8 8 8 8 8 8
31 30 31 32 31 29 29 31 31 30 29 27 26 26 25 24 23 22 22 22 22 22 21 20 20 20 19 18 16 16 15 14 14 14 14 13 13 14 13 11 9 9 9 8 8 7 7 7 7 7 8 10 12 12 11 10 9 9 8 8 7 5 4 3 3 4 4 4 4 4 4 5 6 6 5 6 6 7 8 8 8 7 8 8 8
31 30 30 30 30 29 30 30 30 29 28 27 26 26 25 23 23 22 22 22 21 20 20 19 19 19 18 18 16 15 14 14 13 13 12 12 12 12 12 11 9 8 9 8 7 6 6 6 7 7 9 10 11 11 10 10 9 8 7 6 4 2 2 3 6 6 5 5 3 2 3 3 5 6 5 6 6 6 7 7 7 7 7 7 7
30 30 30 30 28 28 30 30 29 28 27 26 25 25 24 23 22 22 22 22 21 20 19 19 19 18 18 17 16 15 14 13 12 12 12 11 12 12 11 11 10 9 9 8 6 5 6 6 6 7 8 9 10 10 9 8 7 7 6 4 2 2 3 4 7 7 6 7 5 2 2 2 4 6 6 6 6 5 5 6 6 7 6 6 7
32 30 30 30 28 27 28 28 27 27 26 25 25 25 24 23 22 22 22 21 20 19 19 18 18 18 17 16 15 14 13 12 11 11 11 11 11 11 11 12 10 9 9 7 6 5 5 6 6 7 8 8 9 9 9 8 6 5 4 2 3 5 2 3 6 7 6 6 5 2 1 2 4 5 5 5 5 5 5 5 5 5 6 6 6
34 32 31 30 28 27 27 27 26 26 26 25 26 25 24 23 22 23 22 21 20 19 18 18 17 17 17 16 15 15 13 12 11 10 11 11 11 11 11 12 11 10 9 7 6 6 6 6 6 7 8 8 9 9 9 7 6 5 3 3 5 5 3 2 6 6 5 6 5 2 1 2 3 5 5 5 5 5 5 5 5 4 5 5 5
33 33 31 30 29 28 26 25 26 26 25 25 26 25 24 24 23 23 22 21 19 18 17 16 16 15 15 14 14 13 13 13 12 10 11 11 11 11 11 12 12 11 10 7 7 6 6 6 6 7 7 8 8 9 8 7 6 4 3 4 6 7 5 2 6 6 6 5 4 2 1 2 3 4 5 5 5 4 4 5 4 4 4 4 4
30 31 31 30 30 29 27 25 25 25 25 25 25 24 24 23 23 23 22 20 19 18 17 16 15 14 13 12 11 11 11 12 12 11 11 11 11 10 10 12 13 12 10 8 7 6 6 6 6 6 7 7 8 9 8 8 7 4 3 5 7 8 6 3 5 6 6 5 4 2 1 2 3 3 4 4 5 4 3 4 3 3 3 3 3
29 29 30 30 30 29 27 26 25 25 24 24 24 23 23 23 23 22 21 19 19 17 16 15 14 12 12 10 10 9 10 11 11 11 11 11 10 9 10 12 13 12 10 8 7 6 6 5 5 6 6 6 7 8 8 8 7 4 3 5 7 8 7 3 3 5 6 6 4 2 1 2 3 3 3 4 5 5 5 4 4 4 3 2 3
28 28 29 29 30 29 28 26 25 25 25 25 24 23 23 23 23 21 20 19 18 17 16 15 13 12 11 10 9 9 10 11 11 12 11 11 10 9 9 12 13 13 11 9 7 6 6 5 5 5 5 5 5 7 8 8 7 5 3 4 7 9 8 5 2 5 6 5 4 2 1 2 3 4 4 4 5 5 5 6 5 6 5 4 3
27 28 29 29 29 29 29 27 26 26 26 26 24 23 23 23 22 20 19 18 17 16 15 14 13 11 10 10 10 10 11 11 11 12 11 11 11 9 9 11 14 13 11 9 7 6 5 4 4 4 4 3 3 5 7 8 7 5 3 4 7 7 8 7 3 3 5 4 4 3 2 2 3 4 4 5 5 5 5 5 5 6 6 5 4
26 27 28 29 29 29 29 28 27 27 27 26 25 24 23 22 21 19 18 18 16 15 15 14 12 12 11 11 11 11 11 11 12 12 12 12 11 9 9 11 13 13 11 9 7 6 5 4 3 3 3 3 2 1 5 8 7 6 3 4 5 6 7 8 5 1 2 3 4 5 4 3 3 4 5 6 5 5 4 4 5 6 6 5 4
27 27 27 29 29 29 28 28 28 28 27 26 26 25 24 23 21 19 18 17 16 15 15 14 13 13 12 12 11 11 11 10 10 11 11 11 10 10 10 11 13 13 11 9 7 6 5 3 2 2 3 3 2 1 2 5 7 6 2 3 4 5 6 7 6 3 1 3 5 5 5 4 3 4 5 6 6 5 4 4 5 6 7 6 5
27 27 27 27 28 29 28 28 29 28 28 27 26 25 24 23 21 20 19 18 17 16 15 14 13 13 12 12 11 12 12 11 10 9 9 9 10 10 11 12 14 13 12 10 8 6 4 3 1 1 1 2 3 2 0 3 5 5 3 4 5 5 6 7 7 5 4 4 5 6 7 6 4 4 6 6 6 6 5 5 4 5 7 8 7
25 25 26 25 26 28 27 28 29 29 28 26 27 26 25 24 22 21 19 18 18 17 15 14 13 13 12 12 12 13 13 12 12 10 9 8 8 9 10 12 13 13 11 9 7 5 3 2 1 1 2 2 2 1 0 3 4 3 3 4 5 6 7 8 8 8 6 5 5 6 7 7 6 6 6 7 7 7 7 6 5 5 7 7 6
25 26 27 26 26 27 28 29 28 29 27 26 28 26 26 24 22 21 20 19 18 17 15 14 14 13 13 13 13 13 13 12 12 11 10 9 8 8 9 11 12 12 11 9 6 4 2 2 2 2 2 3 3 2 2 3 3 3 5 7 9 10 10 10 10 10 9 8 6 7 7 8 7 7 7 8 8 8 8 7 6 6 7 6 6
27 28 29 28 27 25 28 29 28 29 27 26 28 26 26 25 23 22 21 20 19 17 15 14 14 14 13 13 14 13 12 11 11 10 10 9 9 8 8 9 10 9 8 7 5 3 1 1 2 2 2 3 4 3 3 4 5 6 8 10 12 12 12 12 12 12 12 11 9 8 8 9 9 9 9 9 9 9 9 8 8 8 7 7 7
26 27 28 29 28 27 29 29 28 30 27 26 27 26 26 26 24 23 22 21 19 17 16 15 15 14 13 12 13 12 11 10 10 10 9 9 8 8 8 8 7 6 5 5 5 3 1 2 3 4 4 5 6 6 6 6 7 8 9 10 12 13 12 11 12 13 14 14 12 11 11 10 10 11 10 10 10 11 10 10 10 9 10 9 7
24 25 27 29 30 29 30 30 30 30 28 28 28 27 27 27 25 23 22 21 20 18 16 15 15 14 13 11 11 10 9 9 9 9 9 8 7 7 7 7 6 5 4 5 5 3 1 4 5 5 5 6 7 7 7 7 8 8 9 10 11 13 12 9 11 13 15 15 14 13 13 12 12 12 12 12 12 12 12 11 11 11 11 11 9
23 26 28 29 31 31 31 31 31 31 29 29 29 28 28 27 26 24 23 22 21 19 17 16 15 14 13 11 10 9 8 7 7 8 8 7 6 5 5 5 4 3 2 2 2 2 2 3 5 6 6 5 6 6 7 7 8 9 10 10 11 11 11 10 9 11 14 16 16 15 15 15 14 14 14 14 14 14 14 13 13 12 12 13 12
24 26 28 30 31 32 33 32 32 32 31 30 30 29 29 29 26 25 24 22 22 19 17 16 15 14 13 12 10 8 7 6 6 7 6 5 4 3 3 3 2 2 1 0 2 2 1 2 4 6 6 6 7 7 8 9 10 11 11 11 11 11 11 11 11 10 12 14 16 16 16 16 16 16 16 16 16 16 15 14 14 14 13 13 13
27 28 28 31 32 33 34 34 33 33 32 31 30 30 30 30 27 26 25 23 22 20 18 16 15 14 13 13 12 9 7 6 6 6 5 5 4 3 4 4 3 3 1 0 1 2 2 2 4 5 6 7 7 8 9 10 11 11 12 12 12 11 10 10 10 10 10 12 13 15 17 18 18 18 19 18 18 17 17 16 16 16 14 14 15
29 31 30 31 33 34 35 34 33 33 32 31 30 29 29 29 27 26 24 23 22 20 18 17 15 14 14 14 13 10 8 7 7 7 6 5 5 5 5 4 3 3 1 1 1 2 2 4 5 6 7 7 8 9 9 11 11 12 12 12 12 11 10 9 10 10 11 12 13 14 16 17 18 19 20 20 20 19 19 19 18 17 15 15 16
31 32 32 32 34 35 36 35 33 33 33 31 30 29 27 27 26 25 24 23 21 20 19 17 16 15 15 14 13 11 8 7 8 9 7 6 7 6 4 3 2 2 2 3 3 4 5 6 8 8 9 8 9 9 10 12 12 13 12 12 12 11 11 10 10 11 12 13 14 15 16 17 18 19 21 21 22 22 21 21 20 20 17 15 17
29 31 33 36 37 36 35 34 33 34 33 32 31 29 27 25 24 24 23 22 22 20 19 17 16 16 16 15 14 12 11 9 8 9 9 8 7 5 3 3 2 3 3 4 5 6 7 8 8 8 8 8 8 9 10 12 12 13 12 12 12 12 12 12 12 12 12 13 14 15 17 18 19 20 21 22 23 23 24 24 23 22 21 19 18
27 31 35 37 36 34 34 34 34 34 34 33 32 30 28 26 24 23 22 22 21 20 19 18 17 17 17 16 15 13 12 10 7 8 9 9 8 6 5 4 4 4 4 4 5 6 6 6 6 6 6 6 7 9 11 12 12 13 12 12 12 12 13 14 14 14 14 14 15 16 18 19 20 20 21 22 23 24 24 25 25 25 26 24 20
27 30 33 36 34 33 34 34 33 33 33 34 33 32 29 26 24 23 22 21 21 20 19 18 18 18 18 16 15 13 13 11 8 9 9 9 8 6 6 5 4 3 3 4 5 6 6 5 4 5 7 7 8 10 11 12 13 14 14 14 13 13 13 14 15 15 15 16 16 17 18 20 21 22 22 23 24 24 24 26 27 27 26 26 24
23 24 24 27 30 32 32 32 32 32 32 32 33 33 30 27 25 23 21 21 21 20 19 19 18 19 18 17 15 15 14 13 11 10 10 9 8 7 7 5 4 2 2 4 5 5 5 5 3 6 8 8 9 10 11 12 13 15 16 16 16 15 15 15 15 15 16 16 17 17 18 19 19 20 21 23 24 24 25 25 26 25 24 26 28
26 22 15 12 18 25 27 27 30 30 30 31 31 32 30 27 25 23 22 22 22 20 19 19 19 20 19 18 17 16 14 13 13 12 11 10 9 8 7 5 3 1 2 4 5 5 5 5 5 6 7 8 8 9 11 12 13 15 15 16 16 15 15 15 14 14 14 14 14 14 15 16 16 17 18 19 21 23 24 25 25 24 24 25 28
36 34 27 17 13 18 22 23 26 28 28 29 30 32 30 28 26 23 23 24 23 21 20 20 21 21 20 19 18 16 14 13 13 12 11 10 10 9 7 6 3 2 2 3 4 5 6 7 7 7 7 8 7 8 8 10 12 12 13 14 14 14 13 11 11 10 9 10 11 12 13 14 14 15 15 16 18 20 22 24 25 25 25 25 26
41 39 37 28 15 15 18 20 25 27 28 29 31 32 30 29 27 24 25 26 25 23 22 21 21 21 21 20 18 15 14 13 12 12 10 9 9 9 7 6 5 4 3 3 4 6 7 7 7 7 7 6 5 5 6 10 13 12 14 16 14 12 10 9 8 5 8 12 12 12 13 14 14 15 15 16 16 18 20 21 23 24 25 25 26
36 31 35 34 24 19 18 19 24 28 29 31 32 32 32 30 28 26 26 27 26 25 23 22 22 21 21 19 17 15 15 13 11 10 9 8 9 8 6 6 5 4 4 4 4 6 6 5 5 4 4 4 3 4 7 11 11 12 16 17 14 10 9 9 4 2 12 15 9 11 15 14 14 15 16 16 17 17 18 18 20 21 23 23 24
33 29 33 39 37 32 26 22 25 28 29 31 32 32 32 31 29 28 27 27 26 26 25 24 22 21 20 18 17 16 15 13 10 9 9 8 7 8 7 5 5 4 3 3 3 3 3 2 2 2 2 2 3 4 8 9 8 10 11 11 11 9 10 7 2 7 17 12 8 14 16 14 15 18 17 17 17 17 17 18 19 20 21 21 21
36 32 31 35 40 41 36 29 28 30 30 31 31 31 31 30 29 27 26 26 25 26 25 24 23 21 19 17 17 17 15 12 10 9 9 7 6 8 7 5 4 3 3 2 1 1 1 1 2 2 2 3 3 3 7 8 8 11 8 4 4 6 8 4 5 18 17 8 12 17 14 13 18 20 19 20 20 18 17 18 19 20 21 21 21
34 35 34 36 40 43 41 35 33 32 33 33 32 31 30 29 27 27 27 26 25 25 23 22 22 20 18 17 17 16 15 12 11 10 8 6 6 8 7 4 4 4 4 3 2 1 1 1 2 3 3 3 4 4 6 7 8 9 4 2 2 2 3 3 11 19 11 9 18 15 12 17 20 20 21 23 22 19 17 18 18 19 20 21 21
34 37 39 41 43 46 45 40 36 35 36 35 33 32 31 29 27 26 25 23 22 22 21 21 21 19 18 17 16 15 14 12 12 11 9 7 6 6 5 4 5 5 4 4 3 2 2 1 1 2 3 4 4 5 5 6 8 6 2 2 2 2 1 4 10 11 9 16 17 11 14 20 20 21 23 25 22 20 20 20 19 19 19 20 20
35 39 41 42 41 44 45 41 38 38 38 37 35 34 33 31 30 28 25 22 20 21 22 22 21 20 18 16 16 15 14 12 12 11 10 9 7 5 6 5 5 5 4 4 4 3 3 2 1 2 3 4 4 5 5 6 7 5 4 3 3 4 5 6 6 4 11 16 12 12 18 20 21 23 25 25 24 23 23 22 22 20 19 20 20
35 39 40 41 38 39 43 42 41 40 39 38 37 35 34 32 31 30 28 26 23 22 23 23 21 19 17 16 16 16 15 12 11 11 11 10 8 7 7 6 5 5 4 4 4 3 2 1 0 1 3 4 4 4 5 6 5 3 4 5 5 7 8 8 5 3 7 8 10 17 18 17 21 23 25 26 25 25 25 24 23 21 19 19 19
35 36 38 39 36 36 40 41 41 40 39 39 37 36 34 32 31 29 27 26 24 22 21 21 19 17 17 16 16 16 15 12 12 12 11 10 10 9 8 7 6 6 5 5 4 3 2 2 0 1 2 3 3 4 4 5 5 4 5 6 6 7 8 10 10 7 4 4 9 15 16 20 21 20 22 25 26 26 27 25 23 21 20 20 19
33 35 35 35 32 31 33 36 37 37 38 38 37 35 33 32 30 28 25 24 22 21 20 18 17 17 17 16 15 15 13 13 14 13 12 11 11 11 9 8 7 6 5 4 4 3 3 2 2 2 2 3 3 4 4 5 5 5 6 7 7 8 9 9 9 9 6 4 5 6 13 20 19 19 22 23 26 27 25 24 22 21 21 20 20
31 32 30 28 28 27 28 30 30 33 36 37 36 33 32 31 29 27 25 23 20 19 19 18 17 18 16 15 14 14 14 15 15 14 13 13 12 10 9 7 6 5 4 4 3 3 2 2 2 3 3 3 3 3 4 3 4 6 6 7 7 8 7 5 5 7 7 6 5 5 9 12 13 20 23 24 27 25 23 23 20 20 22 21 20
25 26 26 25 26 26 26 26 26 28 32 34 34 32 31 30 28 27 25 23 22 21 20 19 19 18 17 16 16 16 17 17 16 15 14 13 11 10 8 6 5 5 4 3 3 2 1 1 1 2 2 2 3 3 2 3 5 6 6 5 6 6 5 4 6 9 7 5 5 5 8 12 12 17 23 27 27 22 22 22 18 20 24 21 19
Wind_Direction
177 167 161 163 163 159 160 162 159 157 157 156 155 151 148 144 141 138 136 134 132 131 129 128 126 124 124 123 122 121 119 117 116 114 112 110 108 105 104 103 104 105 105 102 100 99 97 98 98 100 100 99 102 104 103 102 101 98 98 98 97 97 95 93 92 91 90 90 90 90 90 90 88 87 87 87 88 88 88 89 89 87 85 85 85
173 164 161 162 163 160 161 162 161 159 158 158 156 153 150 146 143 139 137 136 134 133 131 130 127 126 126 126 125 123 121 119 117 115 113 112 110 107 106 105 105 107 107 105 102 101 99 100 101 101 100 98 100 103 106 104 102 100 98 97 95 94 94 94 94 92 90 89 88 87 88 89 90 91 91 90 90 90 89 89 90 89 89 89 88
163 160 161 161 163 161 161 163 162 160 160 160 157 155 151 148 145 141 139 138 136 134 133 131 129 129 129 129 127 125 123 121 118 116 115 113 112 110 108 107 109 109 107 105 103 103 103 102 102 101 99 98 99 102 104 104 103 102 101 98 95 91 91 92 93 93 93 93 93 92 90 88 90 94 97 97 97 95 92 91 93 95 96 96 93
158 159 159 160 162 161 162 164 163 162 161 160 159 156 153 150 147 144 141 140 139 136 135 133 132 132 132 132 129 128 125 122 120 118 117 115 114 112 110 109 112 109 106 106 106 107 107 105 105 106 103 100 100 103 105 106 107 105 104 101 96 93 90 90 91 92 94 96 98 95 88 85 85 88 93 96 97 96 95 96 100 101 102 104 102
156 158 159 159 161 161 162 164 164 163 162 161 159 157 154 152 149 146 143 142 141 138 137 135 135 134 134 133 131 129 126 124 122 121 120 118 116 114 112 112 112 110 109 110 109 105 103 102 102 105 106 105 105 107 108 109 111 108 107 104 98 98 97 95 92 91 91 94 93 90 88 87 87 85 83 87 93 95 94 98 102 102 103 106 106
157 158 159 159 161 162 163 164 165 164 162 161 159 158 156 154 151 149 146 145 143 140 138 137 136 136 137 135 133 131 128 126 124 125 123 120 119 116 115 115 115 113 113 110 108 105 103 103 103 105 105 108 111 113 115 114 114 110 109 104 98 99 101 98 92 88 88 89 89 91 93 93 94 90 81 78 85 93 95 97 100 101 102 104 103
158 158 160 161 162 162 164 165 165 164 163 161 160 159 157 155 153 151 149 147 144 142 140 139 138 139 139 138 137 134 131 128 128 129 125 122 121 118 118 119 119 118 115 112 110 109 109 109 110 111 112 113 116 120 122 120 118 115 111 105 100 99 97 95 91 87 86 84 88 95 96 96 97 98 93 84 81 86 96 102 100 99 101 103 102
158 160 162 162 162 163 164 165 165 165 163 161 160 159 159 156 154 153 151 148 145 144 142 141 141 142 142 141 139 136 134 133 134 133 128 125 123 123 123 121 123 124 121 118 113 112 113 116 120 120 124 131 131 128 127 124 120 116 111 107 107 104 97 94 93 91 91 85 93 99 100 101 103 109 106 93 91 86 95 106 107 105 103 104 104
158 161 164 163 161 163 165 165 166 165 163 161 160 160 159 157 156 154 152 149 147 146 144 143 143 143 144 144 142 139 138 137 137 135 132 129 129 129 128 127 129 130 124 119 113 111 113 117 125 127 130 143 148 142 135 131 125 120 113 111 113 114 110 102 105 125 112 106 106 104 106 111 114 117 102 85 104 105 105 111 110 110 109 108 107
159 162 165 163 161 163 165 165 165 164 163 161 160 160 160 159 156 154 152 150 148 148 146 145 144 144 143 144 143 142 140 140 140 138 136 135 137 136 136 139 136 132 126 121 115 110 110 111 120 128 130 142 154 153 146 141 135 130 123 121 122 124 124 116 172 210 173 144 123 112 115 122 121 119 103 95 105 110 114 109 104 109 111 111 111
161 164 165 162 160 164 164 164 164 163 163 161 160 160 160 160 156 154 152 150 149 149 147 146 145 144 144 144 143 145 145 144 145 143 140 141 145 141 140 141 138 139 135 125 119 113 110 109 113 121 124 132 150 156 153 150 144 140 133 131 129 132 141 148 190 215 209 175 147 126 125 137 132 124 122 120 115 113 119 119 116 118 119 119 115
161 164 164 161 162 165 164 163 163 162 162 161 160 160 161 159 156 154 152 151 150 149 148 147 146 145 146 145 145 148 151 148 147 146 145 148 151 143 139 144 147 150 144 130 122 118 112 110 109 114 121 128 143 153 156 155 151 147 140 137 132 149 230 212 206 214 220 204 185 149 131 147 144 136 136 134 128 124 128 135 134 128 128 128 125
160 164 162 161 163 165 164 163 162 162 161 160 160 160 160 159 156 155 153 153 151 150 149 148 146 146 146 145 146 150 153 151 150 152 151 153 153 144 144 156 160 156 147 136 130 123 114 111 107 112 121 130 140 150 156 156 154 150 145 138 96 327 290 232 215 214 217 212 204 176 138 147 148 147 148 142 136 134 133 138 137 131 129 125 127
160 162 161 162 162 164 165 162 161 161 161 161 161 160 160 158 157 157 155 154 153 152 150 149 148 147 147 147 148 151 154 156 155 158 158 155 152 150 156 163 164 160 153 142 137 126 116 111 105 111 124 136 145 153 157 158 158 153 148 107 29 354 333 212 206 205 203 200 202 200 155 148 143 144 145 141 138 137 133 132 133 132 131 132 136
160 161 161 162 160 163 164 160 161 161 162 162 161 160 159 159 159 158 156 155 154 153 151 151 150 149 150 150 152 154 157 161 159 163 164 159 156 159 165 167 167 165 157 146 139 128 119 112 104 113 129 145 154 162 164 168 166 158 143 75 34 22 35 177 192 197 191 186 200 221 198 152 138 138 142 143 145 150 148 143 139 139 142 148 149
159 160 161 160 159 162 162 161 162 162 163 164 162 160 159 161 161 159 157 156 155 153 151 153 154 152 152 151 154 156 159 165 163 164 164 160 159 164 169 168 168 166 158 149 141 130 124 116 106 115 133 152 162 171 174 178 174 160 134 72 45 40 52 153 189 193 189 193 211 229 212 154 149 148 154 155 152 159 160 152 150 150 149 148 146
157 159 159 158 159 159 160 161 163 163 164 163 161 160 161 163 162 159 158 157 155 154 153 156 157 153 152 151 154 157 158 165 166 161 161 161 160 165 167 165 167 166 160 152 144 133 129 121 108 114 131 154 168 177 182 185 178 163 132 75 55 47 51 104 186 197 195 208 222 230 223 169 176 166 160 160 156 160 153 150 155 153 150 143 139
157 159 157 157 157 157 159 160 162 164 164 162 161 162 163 163 162 160 159 158 156 157 157 158 158 154 153 154 159 163 163 166 166 160 161 165 164 167 164 163 169 167 162 156 148 137 132 123 109 110 123 149 170 181 189 190 184 166 126 72 56 47 46 72 177 198 204 216 227 241 236 184 196 189 179 175 171 171 163 169 171 163 167 153 143
157 158 156 157 156 157 158 159 163 164 164 163 162 164 165 164 163 161 160 159 158 159 159 158 156 156 157 161 165 170 170 168 167 161 162 171 172 173 165 164 172 170 166 160 150 141 133 120 109 104 111 134 163 185 194 195 191 168 122 64 56 46 42 47 155 202 214 223 236 258 250 206 209 208 200 199 198 194 184 186 182 174 180 174 175
157 158 157 158 157 157 158 159 164 165 165 163 163 165 166 165 163 162 161 160 161 159 158 157 157 160 163 166 167 168 168 165 167 165 165 174 179 177 166 167 175 173 169 162 151 144 132 119 109 100 99 109 140 182 198 201 196 171 129 53 53 43 35 35 48 205 222 236 258 273 262 230 221 217 214 221 224 221 208 195 181 179 184 181 186
159 160 160 159 159 158 158 161 164 165 165 163 165 166 166 166 164 163 162 161 162 160 159 159 161 164 165 166 163 160 160 162 167 169 169 174 178 178 168 171 179 175 170 164 155 148 139 128 110 95 90 76 71 162 198 201 197 177 151 37 44 38 25 21 24 32 235 262 275 275 266 261 244 230 229 240 242 235 222 200 185 180 184 187 186
162 162 163 161 160 160 160 163 164 165 165 164 167 166 167 167 165 165 164 163 163 162 162 163 165 166 164 161 154 148 145 152 162 167 171 174 175 176 173 176 180 178 174 168 163 161 154 145 120 90 79 54 26 27 189 199 196 185 186 350 7 14 3 357 360 359 311 285 284 277 272 274 262 245 246 251 251 248 232 212 205 186 183 190 194
163 162 163 163 162 161 162 164 164 166 166 167 167 167 169 168 167 168 167 167 166 165 166 166 165 162 157 150 142 135 131 132 138 146 158 169 173 176 176 178 181 181 178 175 173 170 168 168 158 79 49 34 22 18 65 195 194 199 247 321 335 332 326 327 329 325 309 294 291 283 278 279 271 258 257 261 261 258 249 234 219 196 200 208 209
161 160 160 164 164 161 163 164 166 167 167 168 168 169 170 170 170 170 170 171 171 170 168 166 163 155 149 143 137 132 127 125 122 121 128 144 161 170 177 180 182 184 184 184 182 181 188 206 253 299 326 341 355 346 227 180 186 218 278 311 320 310 306 306 303 302 296 290 292 286 280 277 271 267 264 265 266 265 261 251 230 214 221 226 223
157 157 160 166 165 162 165 166 168 169 167 170 170 172 172 170 172 172 173 175 176 173 169 167 160 152 147 143 138 132 128 124 119 115 114 119 133 150 168 180 185 189 190 191 193 199 220 247 275 282 292 307 320 300 241 214 215 260 299 312 313 305 296 292 288 285 283 283 286 282 277 273 269 270 268 266 269 270 266 257 246 237 235 234 235
158 160 162 165 165 164 167 167 170 171 169 172 171 173 173 171 175 175 176 179 179 175 170 168 160 154 151 146 142 138 131 124 119 117 114 113 117 129 148 168 180 189 195 202 204 201 223 288 311 300 295 308 318 313 284 269 275 290 306 316 319 310 294 281 278 280 278 278 279 277 273 269 267 268 268 268 271 272 269 262 254 249 249 248 244
160 161 162 164 165 167 169 168 171 172 172 174 173 174 174 175 177 177 179 181 181 178 173 169 164 160 158 153 148 143 135 129 126 123 120 116 111 116 130 141 148 159 172 180 178 165 132 348 334 320 310 312 315 313 306 303 305 309 316 323 327 324 309 281 269 273 277 277 275 273 271 267 265 266 268 268 270 270 268 265 259 254 255 258 254
158 161 163 166 168 170 171 171 173 173 174 176 175 176 177 178 178 179 182 182 182 181 177 172 169 168 168 164 158 151 143 139 136 130 128 125 116 114 123 128 126 122 127 139 151 154 1 345 336 321 310 314 320 319 315 317 322 326 329 331 329 329 329 309 279 271 271 274 273 271 269 267 265 268 269 268 268 266 265 264 262 258 256 261 260
159 162 166 168 172 173 172 174 175 175 176 177 178 179 180 181 180 181 183 182 182 181 179 176 174 175 176 175 170 164 157 154 150 143 138 133 129 125 126 127 121 110 113 131 169 201 313 340 345 336 324 321 327 329 325 326 329 331 332 333 328 325 330 330 313 289 276 273 271 270 269 267 266 269 270 269 267 263 263 264 262 261 255 254 256
161 164 169 171 174 176 175 175 177 178 179 179 179 181 182 183 183 184 183 182 182 182 181 180 178 179 180 179 178 175 173 173 169 163 153 146 145 151 158 152 149 150 125 110 218 232 271 326 336 331 324 318 317 320 317 316 318 322 326 329 328 323 323 325 323 314 296 283 275 271 270 269 269 270 269 268 267 264 261 262 262 262 254 244 244
164 166 171 174 176 178 178 178 179 182 181 181 182 183 185 185 187 187 184 181 181 182 183 182 181 182 182 183 186 188 194 201 196 186 175 171 166 160 171 176 177 174 155 83 218 246 260 302 319 318 317 318 318 319 318 316 317 318 319 321 321 319 319 319 318 314 307 300 289 280 276 274 272 270 269 268 266 265 261 262 261 255 253 250 241
167 170 173 176 177 180 180 181 182 184 183 183 184 186 188 187 189 190 186 183 181 182 184 184 184 183 184 188 191 194 203 222 222 210 204 202 186 166 168 174 176 184 213 284 293 290 298 312 316 319 321 323 324 324 322 321 319 315 312 312 312 314 315 315 313 308 304 302 296 288 284 280 278 275 272 270 268 266 260 261 259 248 252 257 246
171 172 174 176 179 181 181 183 184 186 186 186 186 188 190 189 191 192 188 185 183 184 185 184 184 183 186 190 193 195 202 228 234 222 220 218 195 176 174 176 183 215 272 301 303 304 309 311 310 312 313 314 315 318 320 319 318 315 313 308 305 308 311 311 309 305 302 301 297 291 288 285 284 281 278 274 271 268 264 262 257 248 250 255 249
169 172 176 179 182 182 180 183 186 188 189 188 189 189 190 190 193 194 190 188 186 187 186 184 184 184 188 191 193 198 206 227 233 216 215 211 193 186 198 203 213 248 281 293 293 295 299 303 307 308 308 312 318 326 330 329 327 323 321 315 306 302 302 303 302 300 298 301 300 295 292 291 289 286 284 281 276 271 268 265 259 251 250 254 255
170 175 180 182 182 181 180 184 188 190 190 191 192 190 191 192 194 194 192 190 189 190 189 186 186 185 188 191 195 202 209 221 216 199 200 195 194 206 217 219 229 249 270 281 288 293 299 310 315 315 318 327 334 338 339 336 333 329 326 322 314 307 301 298 296 294 295 296 297 295 294 294 293 292 290 288 284 279 274 270 264 256 253 254 257
176 180 184 184 182 181 183 184 187 190 191 193 193 192 192 191 191 193 192 191 191 193 192 190 191 189 191 192 197 204 209 215 205 194 197 197 207 214 212 214 218 236 267 292 301 304 313 320 321 326 326 327 329 330 332 331 328 325 323 320 317 315 309 304 299 296 297 298 297 296 296 297 298 297 295 294 292 289 284 277 270 265 258 257 261
180 186 188 187 183 182 184 185 188 191 191 191 191 192 192 189 188 191 192 193 194 197 197 198 198 195 194 195 199 206 211 216 212 209 211 212 216 209 203 202 194 221 300 314 313 312 322 325 327 333 325 320 320 321 324 325 323 321 319 317 316 315 312 309 305 303 303 302 301 300 300 302 304 302 299 296 296 295 290 282 276 272 266 266 270
176 195 208 204 191 184 183 186 190 193 191 189 189 189 188 186 188 192 195 197 199 201 203 205 202 198 198 198 203 209 214 217 215 215 216 213 209 202 200 194 188 252 305 316 312 308 320 324 324 329 326 321 319 319 322 322 322 322 319 318 317 317 316 312 308 308 310 309 309 309 311 313 313 309 305 301 298 295 291 288 287 281 273 271 274
178 193 200 204 210 196 186 188 192 193 191 187 185 184 184 187 192 197 199 201 204 205 204 204 201 201 202 202 207 211 211 209 208 209 208 205 200 199 198 192 195 225 267 308 312 307 313 315 317 321 322 320 316 320 325 326 326 323 320 321 322 323 321 317 315 318 330 334 328 324 326 328 325 321 320 316 309 304 298 295 295 292 286 281 277
182 187 185 185 205 208 195 195 195 194 191 186 183 182 183 189 194 197 198 200 202 201 200 200 200 203 205 205 208 207 201 196 197 201 200 199 199 198 197 191 191 202 234 275 292 299 303 304 308 312 316 318 320 332 340 334 329 323 324 326 326 325 323 324 323 334 355 346 334 330 335 337 335 334 335 333 326 320 313 305 302 300 297 292 284
182 181 174 176 189 201 204 207 199 195 192 187 184 184 183 186 189 191 192 193 196 195 194 197 200 203 204 205 205 201 197 192 192 201 202 203 205 202 196 184 183 198 229 256 280 292 296 295 301 310 317 323 331 349 350 341 336 333 331 328 327 328 329 326 312 357 349 340 335 338 340 342 343 344 341 336 331 327 323 318 314 310 303 296 289
181 179 177 177 181 187 197 208 203 197 195 191 188 187 187 187 187 187 188 188 192 194 193 196 200 203 204 206 205 201 197 190 191 206 210 212 211 200 188 176 178 197 225 246 269 279 286 293 309 333 344 354 346 354 354 353 351 339 329 323 327 334 337 329 243 332 341 338 337 340 341 344 347 348 344 338 334 330 327 325 321 318 312 304 297
179 180 183 179 176 180 188 200 203 198 196 196 194 191 190 191 190 188 188 187 190 192 194 196 199 204 207 207 205 201 196 190 192 207 213 214 202 188 182 178 184 201 219 219 225 242 274 312 347 357 9 16 10 11 5 6 359 343 332 319 331 335 339 348 317 329 337 337 334 338 339 341 343 345 343 339 336 333 330 329 324 319 316 311 304
177 178 183 181 178 179 184 194 198 195 196 198 196 192 187 186 188 188 188 189 189 191 194 197 200 206 207 204 201 198 194 191 195 203 210 207 190 182 180 183 203 223 235 239 247 256 295 344 6 9 10 15 22 21 8 8 3 354 345 298 325 335 327 336 325 327 333 329 331 337 335 334 338 340 339 338 338 337 335 332 327 321 316 312 308
178 180 183 183 184 181 183 191 193 191 193 193 189 185 179 176 176 177 180 185 187 190 193 195 200 204 203 200 197 193 188 189 199 205 209 205 196 192 187 188 201 206 212 232 248 251 248 253 323 0 9 20 25 15 2 358 357 0 2 307 325 333 272 309 322 322 323 324 328 335 330 330 335 336 335 336 337 339 337 334 328 321 316 313 310
182 183 185 187 188 183 182 186 187 187 188 186 184 181 178 175 174 173 176 180 183 190 195 199 202 202 199 198 194 187 182 188 203 211 214 213 210 205 190 182 187 185 193 217 223 226 233 235 285 349 3 11 8 2 355 353 355 6 12 346 305 294 294 317 326 306 316 322 325 327 325 328 333 332 332 336 338 337 335 333 329 322 316 314 312
186 185 186 190 192 185 181 183 184 185 185 184 184 183 181 180 181 180 182 185 187 191 198 204 206 201 196 194 189 183 180 191 208 213 215 214 206 193 184 185 192 195 203 209 202 200 203 200 2 3 3 2 0 2 2 0 5 16 2 345 318 307 303 305 298 289 316 317 317 321 323 328 330 330 331 334 338 336 334 333 331 326 321 318 315
187 186 188 191 193 188 182 181 182 183 184 184 186 187 186 186 186 186 188 192 195 195 199 202 200 196 192 190 184 180 184 199 210 208 206 204 196 186 183 192 196 192 193 195 194 195 194 196 222 352 351 350 353 0 11 12 9 2 349 340 330 323 314 302 291 288 299 303 314 320 323 325 326 328 329 332 335 334 333 333 333 330 327 325 323
188 188 189 189 193 191 184 180 180 181 182 184 186 188 190 190 189 189 190 194 198 199 199 196 191 190 189 187 182 181 188 198 199 196 193 191 188 183 182 185 186 186 193 200 200 205 222 239 272 308 321 333 349 1 9 13 9 0 354 347 338 332 326 313 296 290 287 287 308 316 318 323 324 324 326 329 332 333 332 334 333 332 332 332 331
190 188 187 187 191 192 186 181 180 180 180 183 185 187 190 192 190 191 192 192 194 195 193 188 187 186 183 181 179 178 181 183 182 182 182 181 181 183 184 183 184 192 200 207 213 223 246 266 302 319 329 336 347 358 0 13 19 6 358 355 352 342 328 314 304 308 299 277 277 292 310 320 321 318 322 327 329 331 334 336 336 338 339 337 335
189 184 183 187 189 189 186 180 179 179 179 182 184 186 189 192 192 193 195 194 191 190 186 183 185 182 175 171 169 169 172 174 174 174 176 180 184 185 188 187 187 197 202 205 215 225 254 293 325 334 350 0 2 9 21 28 10 354 358 10 12 4 347 339 334 327 317 291 290 299 307 311 306 305 316 325 328 330 335 338 342 342 342 339 338